Location: Coed Ely
(51.5661°N, 3.4150°W)
Time: 20:10:17
(UTC+00:00)

Cosmos 1898 Rocket - Pass Details

Date: 28 January 2021
Orbit: 754 x 783 km, 74.0° (Epoch: 27 February)

Event Time Altitude Azimuth Distance (km) Brightness Sun altitude
Rises 18:27:54 0° 205° (SSW) 3,232 7.3 -14.2°
Reaches altitude 10° 18:30:16 10° 206° (SSW) 2,305 6.5 -14.5°
Maximum altitude 18:35:31 84° 294° (WNW) 776 3.5 -15.3°
Drops below altitude 10° 18:40:46 10° 24° (NNE) 2,303 5.7 -16.1°
Enters shadow 18:41:24 - 24° (NNE) 2,548 5.9 -16.2°
